QPF
0.00 0.00 0.00 0.00 0.01 0.02 0.04 0.05 0.06 0.06 0.05 0.06 0.06 0.05 0.05 0.04 0.04 0.03 0.03 0.03 0.04 0.09 0.22 0.24 0.23 0.27 0.27 0.25 0.32 0.32 0.26 0.16 0.19 0.21 0.08 0.03 0.03 0.03 0.02 0.02 0.01 0.01 0.01
0.00 0.00 0.00 0.00 0.00 0.00 0.00 0.01 0.01 0.01 0.01 0.01 0.01 0.01 0.01 0.01 0.01 0.00 0.01 0.01 0.02 0.06 0.14 0.18 0.18 0.22 0.24 0.22 0.23 0.26 0.23 0.16 0.22 0.24 0.19 0.11 0.05 0.02 0.02 0.03 0.04 0.04 0.05
0.00 0.00 0.00 0.00 0.00 0.00 0.00 0.00 0.00 0.01 0.00 0.00 0.00 0.00 0.00 0.00 0.00 0.00 0.00 0.01 0.02 0.04 0.07 0.09 0.13 0.17 0.17 0.13 0.13 0.19 0.23 0.19 0.21 0.28 0.29 0.24 0.16 0.12 0.09 0.12 0.16 0.16 0.16
0.00 0.00 0.00 0.00 0.00 0.00 0.00 0.00 0.00 0.00 0.00 0.00 0.00 0.00 0.00 0.00 0.00 0.00 0.00 0.00 0.01 0.02 0.03 0.04 0.06 0.10 0.13 0.12 0.12 0.14 0.16 0.17 0.15 0.20 0.25 0.30 0.30 0.25 0.16 0.12 0.15 0.18 0.18
0.00 0.00 0.00 0.00 0.00 0.00 0.00 0.00 0.00 0.00 0.00 0.00 0.00 0.00 0.00 0.00 0.00 0.00 0.01 0.01 0.01 0.02 0.02 0.03 0.05 0.08 0.09 0.09 0.07 0.07 0.08 0.09 0.11 0.14 0.18 0.25 0.29 0.29 0.23 0.16 0.10 0.08 0.08
0.00 0.00 0.00 0.00 0.00 0.00 0.00 0.00 0.00 0.00 0.00 0.00 0.00 0.01 0.01 0.01 0.01 0.01 0.01 0.01 0.01 0.02 0.03 0.04 0.05 0.06 0.06 0.07 0.06 0.06 0.06 0.06 0.08 0.10 0.14 0.20 0.25 0.30 0.31 0.27 0.18 0.10 0.05
0.00 0.00 0.00 0.00 0.00 0.00 0.00 0.00 0.00 0.00 0.00 0.00 0.00 0.00 0.00 0.00 0.00 0.00 0.01 0.01 0.02 0.03 0.04 0.06 0.06 0.06 0.07 0.07 0.06 0.05 0.05 0.05 0.05 0.06 0.08 0.13 0.20 0.26 0.26 0.23 0.18 0.13 0.09
0.00 0.00 0.00 0.00 0.00 0.00 0.00 0.00 0.00 0.00 0.00 0.00 0.00 0.00 0.00 0.00 0.00 0.00 0.01 0.02 0.03 0.04 0.05 0.07 0.07 0.07 0.08 0.09 0.09 0.08 0.07 0.07 0.07 0.08 0.09 0.12 0.16 0.19 0.20 0.21 0.18 0.14 0.11
0.00 0.00 0.00 0.00 0.00 0.00 0.00 0.00 0.00 0.00 0.00 0.00 0.00 0.00 0.00 0.00 0.00 0.00 0.01 0.02 0.03 0.03 0.04 0.05 0.06 0.06 0.06 0.07 0.10 0.11 0.11 0.13 0.14 0.14 0.15 0.16 0.17 0.17 0.17 0.16 0.12 0.09 0.09
0.00 0.00 0.00 0.00 0.00 0.00 0.00 0.00 0.00 0.00 0.00 0.00 0.00 0.00 0.00 0.00 0.00 0.00 0.01 0.02 0.03 0.04 0.05 0.06 0.06 0.07 0.08 0.12 0.18 0.18 0.18 0.20 0.20 0.18 0.20 0.23 0.24 0.21 0.18 0.13 0.07 0.05 0.04
0.00 0.00 0.00 0.00 0.00 0.00 0.00 0.00 0.00 0.00 0.00 0.00 0.00 0.00 0.00 0.00 0.00 0.00 0.01 0.02 0.03 0.04 0.05 0.05 0.05 0.05 0.06 0.10 0.19 0.30 0.32 0.31 0.29 0.29 0.30 0.28 0.23 0.14 0.09 0.06 0.04 0.02 0.02
0.00 0.00 0.00 0.00 0.00 0.00 0.00 0.00 0.00 0.00 0.00 0.00 0.00 0.00 0.00 0.00 0.00 0.01 0.02 0.02 0.02 0.03 0.03 0.03 0.02 0.02 0.03 0.07 0.14 0.25 0.32 0.35 0.35 0.30 0.25 0.17 0.09 0.05 0.03 0.03 0.02 0.01 0.01
0.00 0.00 0.00 0.00 0.00 0.00 0.00 0.00 0.00 0.00 0.00 0.00 0.00 0.00 0.00 0.00 0.00 0.01 0.02 0.02 0.03 0.05 0.04 0.03 0.04 0.07 0.09 0.12 0.14 0.17 0.25 0.28 0.24 0.18 0.11 0.05 0.03 0.02 0.01 0.01 0.00 0.00 0.00
0.00 0.00 0.00 0.00 0.00 0.00 0.00 0.00 0.00 0.00 0.00 0.00 0.00 0.00 0.00 0.00 0.00 0.00 0.01 0.02 0.04 0.06 0.06 0.06 0.09 0.13 0.16 0.15 0.14 0.15 0.15 0.11 0.07 0.04 0.03 0.01 0.00 0.00 0.00 0.00 0.00 0.00 0.00
0.00 0.00 0.00 0.00 0.00 0.00 0.00 0.00 0.00 0.00 0.00 0.00 0.00 0.01 0.00 0.00 0.00 0.00 0.00 0.01 0.02 0.03 0.05 0.07 0.11 0.14 0.14 0.13 0.13 0.12 0.07 0.04 0.02 0.00 0.00 0.00 0.00 0.00 0.00 0.00 0.00 0.00 0.00
0.00 0.00 0.00 0.00 0.00 0.00 0.00 0.00 0.00 0.00 0.00 0.00 0.01 0.01 0.01 0.00 0.00 0.00 0.00 0.00 0.00 0.01 0.02 0.04 0.06 0.06 0.07 0.08 0.07 0.06 0.03 0.01 0.01 0.00 0.00 0.00 0.00 0.00 0.00 0.00 0.00 0.00 0.00
0.00 0.00 0.00 0.00 0.00 0.00 0.00 0.00 0.00 0.00 0.00 0.00 0.01 0.01 0.01 0.00 0.00 0.00 0.00 0.00 0.00 0.00 0.01 0.01 0.01 0.02 0.02 0.02 0.02 0.01 0.01 0.01 0.00 0.00 0.00 0.00 0.00 0.00 0.00 0.00 0.00 0.00 0.00
0.00 0.00 0.00 0.00 0.00 0.00 0.00 0.00 0.00 0.01 0.01 0.01 0.01 0.02 0.01 0.00 0.00 0.00 0.00 0.00 0.00 0.00 0.00 0.00 0.00 0.00 0.00 0.00 0.00 0.00 0.00 0.00 0.00 0.00 0.00 0.00 0.00 0.00 0.00 0.00 0.00 0.00 0.00
0.00 0.00 0.00 0.00 0.00 0.00 0.01 0.01 0.02 0.02 0.03 0.03 0.02 0.02 0.01 0.00 0.00 0.00 0.00 0.00 0.00 0.00 0.00 0.00 0.00 0.00 0.00 0.00 0.00 0.00 0.00 0.00 0.00 0.00 0.00 0.00 0.00 0.00 0.00 0.00 0.00 0.00 0.00
0.00 0.00 0.00 0.00 0.01 0.01 0.02 0.03 0.04 0.05 0.06 0.06 0.05 0.04 0.02 0.01 0.00 0.00 0.00 0.00 0.00 0.00 0.01 0.00 0.00 0.00 0.00 0.00 0.00 0.00 0.00 0.00 0.00 0.00 0.00 0.00 0.00 0.00 0.00 0.00 0.00 0.00 0.00
0.00 0.01 0.01 0.01 0.01 0.03 0.04 0.06 0.07 0.08 0.09 0.10 0.10 0.09 0.05 0.02 0.01 0.00 0.00 0.00 0.00 0.01 0.01 0.01 0.00 0.00 0.00 0.00 0.00 0.00 0.00 0.00 0.00 0.00 0.00 0.00 0.00 0.00 0.00 0.00 0.00 0.00 0.00
0.00 0.01 0.02 0.03 0.04 0.06 0.09 0.12 0.12 0.13 0.15 0.15 0.14 0.13 0.10 0.06 0.02 0.01 0.00 0.00 0.00 0.00 0.01 0.01 0.01 0.00 0.00 0.00 0.00 0.00 0.00 0.00 0.00 0.00 0.00 0.00 0.00 0.00 0.00 0.00 0.00 0.00 0.00
0.00 0.00 0.01 0.02 0.04 0.07 0.14 0.20 0.23 0.24 0.23 0.19 0.17 0.16 0.13 0.09 0.05 0.03 0.01 0.01 0.01 0.00 0.01 0.01 0.01 0.00 0.00 0.00 0.00 0.00 0.00 0.00 0.00 0.00 0.00 0.00 0.00 0.00 0.00 0.00 0.00 0.00 0.00
0.00 0.00 0.00 0.01 0.01 0.04 0.13 0.26 0.32 0.31 0.27 0.21 0.17 0.17 0.15 0.11 0.08 0.05 0.03 0.02 0.01 0.00 0.01 0.01 0.00 0.00 0.00 0.00 0.00 0.00 0.00 0.00 0.00 0.00 0.00 0.00 0.00 0.00 0.00 0.00 0.00 0.00 0.00
0.00 0.00 0.00 0.00 0.00 0.01 0.06 0.21 0.33 0.34 0.30 0.23 0.17 0.15 0.15 0.12 0.08 0.06 0.05 0.04 0.02 0.01 0.00 0.00 0.00 0.00 0.00 0.00 0.00 0.00 0.00 0.00 0.00 0.00 0.00 0.00 0.00 0.00 0.00 0.00 0.00 0.00 0.00
0.00 0.00 0.00 0.00 0.00 0.01 0.02 0.09 0.25 0.40 0.40 0.32 0.25 0.19 0.14 0.13 0.10 0.07 0.05 0.04 0.03 0.01 0.00 0.00 0.00 0.00 0.00 0.00 0.00 0.00 0.00 0.00 0.00 0.00 0.00 0.00 0.00 0.00 0.00 0.00 0.00 0.00 0.00
MSLP
1011.15 1011.18 1011.14 1011.03 1010.87 1010.71 1010.60 1010.57 1010.65 1010.82 1011.06 1011.33 1011.56 1011.72 1011.76 1011.67 1011.46 1011.16 1010.82 1010.48 1010.17 1009.94 1009.79 1009.73 1009.73 1009.77 1009.85 1009.94 1010.03 1010.13 1010.23 1010.34 1010.45 1010.54 1010.60 1010.59 1010.52 1010.34 1010.08 1009.74 1009.36 1008.97 1008.62
1011.35 1011.39 1011.33 1011.18 1010.97 1010.75 1010.56 1010.47 1010.50 1010.64 1010.89 1011.17 1011.43 1011.60 1011.65 1011.54 1011.29 1010.94 1010.52 1010.10 1009.74 1009.45 1009.27 1009.19 1009.18 1009.23 1009.31 1009.40 1009.49 1009.59 1009.71 1009.84 1009.98 1010.11 1010.23 1010.29 1010.27 1010.14 1009.91 1009.58 1009.18 1008.76 1008.36
1011.39 1011.42 1011.36 1011.20 1010.96 1010.70 1010.47 1010.33 1010.33 1010.46 1010.70 1010.99 1011.26 1011.46 1011.51 1011.39 1011.12 1010.72 1010.25 1009.77 1009.34 1009.01 1008.78 1008.67 1008.64 1008.68 1008.75 1008.84 1008.93 1009.04 1009.17 1009.33 1009.51 1009.70 1009.88 1010.00 1010.05 1009.99 1009.81 1009.52 1009.14 1008.71 1008.29
1011.26 1011.27 1011.21 1011.06 1010.84 1010.57 1010.33 1010.18 1010.16 1010.28 1010.51 1010.81 1011.09 1011.29 1011.35 1011.23 1010.94 1010.51 1010.01 1009.48 1009.00 1008.62 1008.34 1008.19 1008.13 1008.14 1008.19 1008.27 1008.37 1008.49 1008.64 1008.83 1009.05 1009.30 1009.53 1009.73 1009.85 1009.86 1009.74 1009.51 1009.17 1008.77 1008.36
1010.97 1010.98 1010.94 1010.82 1010.63 1010.39 1010.17 1010.03 1010.01 1010.12 1010.35 1010.65 1010.94 1011.14 1011.21 1011.10 1010.80 1010.36 1009.83 1009.27 1008.74 1008.30 1007.97 1007.76 1007.65 1007.62 1007.64 1007.71 1007.80 1007.93 1008.11 1008.33 1008.60 1008.89 1009.18 1009.44 1009.63 1009.71 1009.66 1009.49 1009.21 1008.87 1008.51
1010.58 1010.59 1010.58 1010.51 1010.37 1010.19 1010.01 1009.90 1009.89 1010.01 1010.24 1010.53 1010.82 1011.03 1011.11 1011.01 1010.72 1010.28 1009.73 1009.14 1008.57 1008.08 1007.68 1007.40 1007.22 1007.14 1007.13 1007.17 1007.26 1007.40 1007.60 1007.85 1008.15 1008.48 1008.81 1009.12 1009.35 1009.49 1009.51 1009.42 1009.22 1008.96 1008.66
1010.16 1010.18 1010.22 1010.21 1010.13 1010.01 1009.89 1009.81 1009.82 1009.94 1010.17 1010.46 1010.74 1010.96 1011.05 1010.97 1010.70 1010.28 1009.73 1009.12 1008.52 1007.96 1007.49 1007.14 1006.89 1006.74 1006.68 1006.69 1006.77 1006.91 1007.12 1007.39 1007.72 1008.07 1008.43 1008.76 1009.03 1009.21 1009.29 1009.27 1009.16 1008.98 1008.77
1009.79 1009.83 1009.91 1009.95 1009.94 1009.88 1009.80 1009.75 1009.78 1009.90 1010.12 1010.40 1010.69 1010.91 1011.03 1010.97 1010.74 1010.34 1009.81 1009.20 1008.56 1007.96 1007.42 1006.98 1006.65 1006.43 1006.31 1006.29 1006.35 1006.49 1006.71 1006.99 1007.33 1007.69 1008.06 1008.40 1008.68 1008.89 1009.02 1009.06 1009.03 1008.95 1008.84
1009.56 1009.62 1009.72 1009.80 1009.83 1009.80 1009.74 1009.71 1009.73 1009.85 1010.05 1010.31 1010.59 1010.83 1010.97 1010.97 1010.78 1010.43 1009.94 1009.34 1008.70 1008.06 1007.46 1006.95 1006.54 1006.25 1006.08 1006.01 1006.05 1006.19 1006.41 1006.70 1007.03 1007.39 1007.75 1008.08 1008.36 1008.58 1008.74 1008.83 1008.88 1008.89 1008.88
1009.52 1009.59 1009.70 1009.78 1009.81 1009.77 1009.70 1009.65 1009.64 1009.72 1009.89 1010.13 1010.41 1010.66 1010.84 1010.89 1010.78 1010.50 1010.07 1009.52 1008.89 1008.24 1007.61 1007.05 1006.58 1006.22 1005.99 1005.89 1005.91 1006.03 1006.25 1006.54 1006.87 1007.21 1007.55 1007.86 1008.13 1008.35 1008.52 1008.65 1008.76 1008.85 1008.94
1009.75 1009.79 1009.86 1009.90 1009.88 1009.78 1009.66 1009.54 1009.47 1009.49 1009.61 1009.81 1010.08 1010.34 1010.57 1010.69 1010.66 1010.48 1010.14 1009.67 1009.10 1008.47 1007.85 1007.26 1006.76 1006.36 1006.10 1005.97 1005.96 1006.08 1006.29 1006.57 1006.88 1007.21 1007.53 1007.81 1008.05 1008.26 1008.43 1008.59 1008.74 1008.89 1009.05
1010.22 1010.22 1010.21 1010.16 1010.03 1009.83 1009.60 1009.37 1009.21 1009.14 1009.18 1009.34 1009.58 1009.86 1010.12 1010.32 1010.40 1010.33 1010.12 1009.76 1009.29 1008.73 1008.15 1007.58 1007.08 1006.67 1006.39 1006.24 1006.22 1006.32 1006.52 1006.79 1007.10 1007.40 1007.69 1007.94 1008.16 1008.34 1008.50 1008.67 1008.84 1009.03 1009.24
1010.93 1010.84 1010.71 1010.52 1010.24 1009.90 1009.53 1009.17 1008.89 1008.70 1008.66 1008.74 1008.94 1009.22 1009.52 1009.79 1009.98 1010.05 1009.98 1009.77 1009.43 1008.99 1008.49 1007.99 1007.52 1007.13 1006.85 1006.70 1006.67 1006.76 1006.95 1007.21 1007.49 1007.78 1008.04 1008.26 1008.45 1008.60 1008.75 1008.90 1009.07 1009.28 1009.51
1011.78 1011.57 1011.30 1010.94 1010.51 1010.00 1009.48 1008.97 1008.55 1008.24 1008.09 1008.09 1008.23 1008.49 1008.82 1009.15 1009.44 1009.65 1009.74 1009.69 1009.51 1009.21 1008.84 1008.44 1008.04 1007.70 1007.44 1007.30 1007.27 1007.35 1007.53 1007.77 1008.03 1008.30 1008.53 1008.73 1008.88 1009.01 1009.13 1009.26 1009.41 1009.61 1009.84
1012.67 1012.33 1011.90 1011.38 1010.78 1010.13 1009.45 1008.81 1008.25 1007.83 1007.56 1007.46 1007.54 1007.76 1008.08 1008.46 1008.84 1009.17 1009.41 1009.53 1009.52 1009.40 1009.18 1008.89 1008.59 1008.32 1008.10 1007.98 1007.95 1008.03 1008.19 1008.41 1008.65 1008.90 1009.11 1009.28 1009.41 1009.51 1009.60 1009.70 1009.82 1009.98 1010.18
1013.47 1012.99 1012.42 1011.77 1011.04 1010.26 1009.47 1008.72 1008.05 1007.52 1007.15 1006.95 1006.95 1007.11 1007.40 1007.80 1008.23 1008.65 1009.02 1009.30 1009.46 1009.51 1009.45 1009.30 1009.11 1008.92 1008.75 1008.66 1008.64 1008.71 1008.85 1009.05 1009.28 1009.50 1009.70 1009.85 1009.97 1010.05 1010.11 1010.17 1010.25 1010.37 1010.52
1014.05 1013.46 1012.78 1012.04 1011.23 1010.38 1009.53 1008.71 1007.98 1007.36 1006.90 1006.61 1006.51 1006.59 1006.84 1007.21 1007.66 1008.14 1008.61 1009.01 1009.32 1009.53 1009.62 1009.61 1009.54 1009.43 1009.33 1009.26 1009.25 1009.31 1009.44 1009.62 1009.83 1010.04 1010.23 1010.38 1010.49 1010.56 1010.60 1010.64 1010.68 1010.75 1010.84
1014.31 1013.63 1012.91 1012.12 1011.30 1010.45 1009.60 1008.77 1008.01 1007.35 1006.82 1006.45 1006.25 1006.24 1006.40 1006.72 1007.15 1007.65 1008.17 1008.66 1009.09 1009.42 1009.65 1009.77 1009.80 1009.78 1009.75 1009.72 1009.72 1009.79 1009.91 1010.08 1010.27 1010.48 1010.67 1010.83 1010.95 1011.03 1011.06 1011.08 1011.10 1011.12 1011.16
1014.18 1013.48 1012.75 1012.00 1011.22 1010.43 1009.63 1008.85 1008.10 1007.43 1006.86 1006.42 1006.13 1006.02 1006.08 1006.31 1006.69 1007.16 1007.70 1008.24 1008.74 1009.17 1009.51 1009.74 1009.88 1009.95 1009.98 1009.99 1010.02 1010.10 1010.22 1010.39 1010.59 1010.80 1011.01 1011.19 1011.33 1011.43 1011.48 1011.51 1011.51 1011.51 1011.51
1013.70 1013.02 1012.33 1011.65 1010.97 1010.27 1009.57 1008.87 1008.18 1007.52 1006.93 1006.43 1006.06 1005.85 1005.81 1005.94 1006.23 1006.66 1007.17 1007.72 1008.27 1008.77 1009.20 1009.53 1009.76 1009.92 1010.01 1010.08 1010.16 1010.25 1010.39 1010.57 1010.79 1011.02 1011.26 1011.47 1011.65 1011.78 1011.87 1011.91 1011.92 1011.91 1011.89
1012.93 1012.28 1011.68 1011.10 1010.53 1009.96 1009.38 1008.77 1008.15 1007.53 1006.93 1006.40 1005.96 1005.66 1005.51 1005.54 1005.74 1006.09 1006.56 1007.10 1007.67 1008.23 1008.72 1009.14 1009.46 1009.70 1009.88 1010.02 1010.15 1010.29 1010.45 1010.66 1010.90 1011.17 1011.43 1011.69 1011.91 1012.09 1012.22 1012.30 1012.33 1012.34 1012.32
1011.95 1011.37 1010.85 1010.38 1009.93 1009.49 1009.02 1008.51 1007.96 1007.38 1006.80 1006.24 1005.75 1005.36 1005.13 1005.06 1005.17 1005.45 1005.87 1006.39 1006.97 1007.55 1008.11 1008.61 1009.02 1009.36 1009.63 1009.84 1010.04 1010.23 1010.45 1010.69 1010.96 1011.26 1011.56 1011.86 1012.12 1012.35 1012.53 1012.65 1012.73 1012.76 1012.76
1010.88 1010.36 1009.92 1009.55 1009.20 1008.85 1008.48 1008.05 1007.57 1007.03 1006.46 1005.89 1005.36 1004.92 1004.62 1004.47 1004.51 1004.72 1005.09 1005.59 1006.18 1006.80 1007.41 1007.98 1008.49 1008.93 1009.30 1009.61 1009.88 1010.14 1010.41 1010.69 1011.00 1011.32 1011.65 1011.98 1012.29 1012.55 1012.78 1012.95 1013.07 1013.14 1013.18
1009.80 1009.34 1008.96 1008.64 1008.36 1008.08 1007.77 1007.41 1006.97 1006.46 1005.91 1005.34 1004.80 1004.33 1003.97 1003.77 1003.76 1003.92 1004.26 1004.75 1005.34 1006.00 1006.67 1007.32 1007.93 1008.47 1008.93 1009.34 1009.70 1010.03 1010.35 1010.68 1011.01 1011.35 1011.70 1012.05 1012.37 1012.67 1012.93 1013.14 1013.31 1013.43 1013.51
1008.77 1008.33 1007.98 1007.70 1007.45 1007.20 1006.92 1006.59 1006.19 1005.71 1005.18 1004.62 1004.08 1003.59 1003.22 1003.00 1002.95 1003.09 1003.41 1003.90 1004.51 1005.20 1005.93 1006.66 1007.36 1008.00 1008.57 1009.07 1009.52 1009.91 1010.28 1010.64 1010.99 1011.34 1011.68 1012.03 1012.36 1012.67 1012.95 1013.20 1013.40 1013.57 1013.70
1007.79 1007.36 1007.01 1006.73 1006.48 1006.24 1005.97 1005.65 1005.26 1004.81 1004.30 1003.77 1003.24 1002.77 1002.40 1002.18 1002.13 1002.26 1002.58 1003.07 1003.71 1004.44 1005.23 1006.03 1006.81 1007.54 1008.21 1008.79 1009.31 1009.77 1010.17 1010.55 1010.90 1011.24 1011.57 1011.90 1012.22 1012.53 1012.82 1013.09 1013.33 1013.54 1013.72
Thickness
5788 5790 5789 5786 5781 5775 5771 5767 5763 5759 5755 5751 5747 5744 5743 5744 5744 5745 5746 5746 5746 5746 5745 5746 5746 5746 5743 5742 5741 5738 5735 5734 5734 5728 5727 5732 5735 5736 5739 5741 5742 5745 5748
5778 5780 5779 5777 5772 5767 5763 5759 5756 5752 5749 5745 5742 5739 5738 5737 5737 5738 5738 5738 5738 5739 5738 5738 5738 5738 5737 5737 5736 5732 5729 5728 5727 5721 5715 5713 5720 5729 5734 5734 5734 5737 5740
5768 5769 5769 5768 5765 5761 5759 5756 5752 5749 5745 5742 5737 5733 5730 5728 5728 5729 5730 5732 5732 5732 5732 5731 5731 5731 5730 5730 5730 5727 5723 5720 5721 5718 5710 5703 5704 5713 5721 5724 5725 5726 5728
5764 5763 5762 5761 5760 5759 5758 5753 5749 5745 5742 5738 5731 5725 5720 5717 5719 5721 5723 5725 5726 5726 5726 5726 5726 5724 5723 5723 5723 5722 5719 5715 5713 5711 5710 5707 5705 5700 5703 5711 5715 5717 5718
5760 5759 5760 5759 5759 5757 5752 5747 5743 5738 5734 5730 5725 5719 5715 5713 5713 5714 5715 5717 5719 5720 5721 5721 5720 5719 5718 5717 5716 5715 5713 5710 5708 5704 5702 5700 5699 5698 5694 5695 5702 5706 5710
5758 5758 5758 5756 5752 5749 5744 5739 5732 5727 5723 5719 5714 5709 5705 5703 5703 5703 5705 5708 5711 5713 5715 5715 5715 5714 5712 5711 5710 5708 5705 5703 5700 5698 5695 5692 5690 5690 5689 5688 5691 5694 5700
5752 5750 5747 5744 5742 5739 5734 5729 5723 5717 5713 5708 5703 5698 5695 5692 5691 5691 5693 5696 5700 5703 5706 5707 5707 5706 5705 5704 5702 5699 5696 5694 5691 5688 5686 5685 5685 5685 5685 5683 5683 5685 5689
5744 5742 5740 5737 5734 5731 5726 5721 5715 5709 5704 5699 5693 5689 5684 5681 5679 5680 5682 5685 5689 5693 5697 5698 5698 5698 5696 5694 5692 5689 5687 5685 5682 5679 5678 5677 5677 5678 5678 5678 5676 5675 5677
5740 5739 5736 5733 5730 5726 5722 5716 5709 5703 5697 5692 5686 5680 5675 5671 5669 5669 5671 5674 5678 5683 5686 5687 5687 5686 5685 5683 5681 5678 5677 5675 5673 5671 5670 5669 5670 5670 5672 5673 5672 5669 5666
5736 5735 5732 5730 5727 5724 5719 5713 5706 5699 5692 5686 5681 5674 5668 5663 5660 5659 5660 5663 5666 5669 5671 5673 5673 5673 5672 5671 5670 5669 5668 5667 5666 5664 5663 5662 5662 5663 5665 5666 5666 5666 5662
5726 5725 5724 5724 5722 5719 5713 5707 5701 5695 5688 5682 5676 5669 5662 5657 5652 5650 5651 5652 5654 5656 5657 5658 5659 5659 5660 5660 5660 5660 5661 5660 5658 5657 5655 5654 5654 5654 5657 5658 5659 5659 5657
5716 5715 5715 5714 5712 5710 5706 5701 5697 5691 5686 5679 5672 5665 5659 5653 5647 5644 5643 5643 5643 5644 5645 5646 5646 5647 5649 5650 5651 5652 5653 5652 5650 5648 5646 5645 5646 5647 5649 5650 5650 5651 5650
5704 5703 5701 5700 5700 5701 5700 5696 5692 5688 5683 5676 5668 5661 5655 5650 5644 5640 5637 5636 5635 5635 5635 5636 5635 5636 5638 5640 5641 5642 5642 5641 5639 5638 5636 5636 5638 5638 5641 5642 5643 5643 5642
5689 5688 5685 5684 5685 5687 5689 5689 5687 5684 5679 5672 5664 5658 5652 5647 5643 5638 5633 5630 5629 5627 5627 5627 5627 5626 5628 5630 5631 5631 5630 5629 5628 5627 5628 5630 5631 5632 5633 5634 5634 5635 5633
5674 5671 5669 5668 5669 5670 5673 5677 5679 5678 5674 5668 5661 5655 5650 5645 5640 5635 5630 5626 5623 5622 5620 5620 5619 5618 5619 5621 5620 5619 5619 5618 5617 5618 5620 5622 5624 5626 5627 5626 5625 5625 5624
5654 5654 5654 5653 5653 5653 5656 5662 5668 5670 5668 5663 5658 5653 5646 5641 5636 5632 5627 5622 5618 5616 5614 5613 5611 5611 5612 5612 5612 5611 5610 5610 5610 5610 5611 5613 5616 5617 5618 5618 5618 5618 5617
5637 5636 5636 5636 5636 5638 5641 5646 5655 5661 5660 5657 5653 5648 5643 5637 5632 5628 5623 5618 5613 5610 5608 5606 5605 5603 5604 5605 5605 5604 5603 5602 5602 5603 5604 5606 5606 5608 5608 5609 5610 5610 5611
5616 5616 5615 5617 5620 5622 5626 5632 5640 5647 5650 5650 5647 5643 5638 5633 5628 5623 5619 5614 5609 5605 5603 5601 5599 5598 5599 5599 5599 5598 5596 5594 5594 5594 5596 5596 5597 5599 5601 5602 5602 5603 5604
5598 5597 5596 5597 5600 5603 5608 5614 5621 5629 5634 5638 5639 5638 5634 5628 5622 5618 5616 5611 5605 5601 5598 5596 5595 5594 5593 5594 5593 5592 5590 5587 5585 5587 5589 5591 5590 5592 5595 5595 5595 5596 5597
5584 5582 5581 5581 5581 5583 5587 5592 5601 5608 5614 5621 5627 5630 5630 5625 5620 5616 5613 5608 5603 5598 5595 5592 5591 5590 5590 5590 5589 5588 5585 5581 5579 5580 5583 5585 5586 5586 5588 5588 5588 5586 5586
5564 5562 5560 5558 5559 5560 5564 5568 5578 5586 5596 5605 5613 5619 5621 5621 5617 5613 5610 5606 5600 5594 5590 5589 5587 5587 5587 5587 5586 5584 5582 5579 5577 5577 5577 5578 5580 5581 5581 5582 5581 5580 5580
5544 5540 5537 5536 5535 5534 5536 5542 5551 5564 5576 5587 5597 5606 5610 5612 5612 5608 5606 5603 5598 5591 5587 5584 5582 5582 5582 5584 5583 5582 5580 5579 5577 5575 5574 5574 5576 5576 5577 5576 5576 5576 5575
5527 5524 5521 5520 5519 5516 5516 5520 5530 5542 5554 5566 5579 5589 5598 5602 5604 5603 5602 5599 5595 5590 5586 5583 5581 5579 5578 5580 5582 5581 5579 5577 5576 5574 5574 5572 5572 5572 5571 5572 5571 5570 5567
5516 5515 5512 5510 5509 5506 5505 5507 5515 5523 5533 5545 5560 5573 5585 5592 5596 5598 5599 5598 5595 5590 5586 5582 5581 5579 5577 5577 5577 5577 5577 5575 5574 5571 5570 5569 5568 5567 5567 5566 5565 5563 5561
5513 5511 5507 5506 5504 5501 5498 5499 5503 5510 5518 5530 5544 5558 5572 5584 5590 5593 5597 5599 5599 5596 5590 5586 5584 5581 5578 5579 5580 5578 5576 5574 5572 5567 5563 5561 5561 5560 5559 5559 5559 5558 5556
5508 5505 5502 5500 5499 5496 5494 5494 5495 5501 5508 5519 5532 5547 5562 5576 5585 5589 5592 5594 5596 5594 5591 5589 5587 5586 5586 5581 5577 5577 5576 5574 5570 5566 5561 5560 5559 5559 5557 5555 5554 5553 5552